Flag for U.S.A. Weather past 2 weeks in Naples, Florida, U.S.A.

Now
78 °F

Clear.


Feels Like: 81 °F
Forecast: 75 / 83 °F
Wind: 5 mph from East

Location: Naples Municipal

Current Time: Sep 19, 2014 at 8:02:09 AM

Latest Report: Sep 19, 2014 at 6:53 AM


Visibility: 10 mi

Pressure: 29.90 "Hg

Humidity: 90%

Dew point: 75 °F

Location of NaplesLocation

Historic Weather in Naples — Graph

°F

Naples temperature yesterday

Maximum temperature yesterday: 87 °F (at 3:53 PM)
Minimum temperature yesterday: 74 °F (at 12:00 AM)
Average temperature yesterday: 80 °F

Past Weeks' High & Low Weather Summary

 TemperatureHumidityPressure
High93 °F (Sep 15, 2:53 PM)100% (Sep 9, 8:53 PM)30.15 "Hg (Sep 9, 8:53 PM)
Low74 °F (Sep 8, 6:53 AM)46% (Sep 15, 2:53 PM)29.86 "Hg (Sep 18, 4:53 AM)
Average80 °F82%30.00 "Hg
* Reported Sep 4 6:53 AM — Sep 19 6:53 AM, Naples, Weather by CustomWeather, © 2014

Note: Actual official high and low records may vary slightly from our data, if they occured in-between our weather recording intervals... More about our weather records

Advertising

Naples weather history for previous 24 hours

 ConditionsComfort  
Time TempWeatherWind HumidityBarometerVisibility
6:53 AM
Sep 19
78 °FClear.5 mph90%29.90 "Hg10 mi
5:53 AM78 °FClear.3 mph93%29.88 "Hg10 mi
4:53 AM78 °FClear.No wind93%29.88 "Hg10 mi
3:53 AM79 °FClear.No wind90%29.88 "Hg10 mi
2:53 AM79 °FClear.No wind90%29.89 "Hg10 mi
1:53 AM79 °FClear.No wind90%29.91 "Hg10 mi
12:53 AM80 °FClear.No wind87%29.92 "Hg10 mi
11:53 PM
Sep 18
80 °FClear.No wind87%29.92 "Hg10 mi
10:53 PM81 °FPassing clouds.No wind85%29.92 "Hg10 mi
9:53 PM83 °FClear.No wind74%29.91 "Hg10 mi
8:53 PM82 °FPassing clouds.7 mph79%29.90 "Hg10 mi
7:53 PM83 °FPassing clouds.3 mph77%29.88 "Hg10 mi
6:53 PM84 °FScattered clouds.6 mph72%29.87 "Hg10 mi
5:53 PM85 °FPassing clouds.9 mph68%29.86 "Hg10 mi
4:53 PM86 °FSunny.8 mph67%29.87 "Hg10 mi
3:53 PM87 °FSunny.8 mph63%29.87 "Hg10 mi
2:53 PM86 °FSunny.8 mph65%29.89 "Hg10 mi
1:53 PM85 °FSunny.3 mph65%29.90 "Hg10 mi
12:53 PM85 °FSunny.7 mph68%29.93 "Hg10 mi
11:53 AM83 °FPassing clouds.No wind77%29.95 "Hg10 mi
10:53 AM79 °FScattered clouds.No wind88%29.94 "Hg10 mi
10:03 AM78 °FHeavy rain. Fog.6 mph93%29.95 "Hg1 mi
9:55 AM79 °FHeavy rain. Fog.9 mph90%29.95 "Hg1 mi
8:53 AM79 °FPartly sunny.6 mph90%29.92 "Hg10 mi
Weather by CustomWeather, © 2014

See weather overviewHow to use our weather pages